Location: Vlissingen
(51.4500°N, 3.5830°E)
Time: 12:16:21
(UTC+02:00)

Envisat - Pass Details

Date: 27 May 2024
Orbit: 762 x 764 km, 98.3° (Epoch: 13 June)

Event Time Altitude Azimuth Distance (km) Brightness Sun altitude
Rises 04:19:41 0° 21° (NNE) 3,240 8.0 -9.5°
Reaches altitude 10° 04:22:16 10° 32° (NNE) 2,309 7.2 -9.2°
Maximum altitude 04:26:45 30° 94° (E) 1,336 4.7 -8.8°
Drops below altitude 10° 04:31:11 10° 156° (SSE) 2,293 5.2 -8.4°
Sets 04:33:44 0° 166° (SSE) 3,214 5.9 -8.1°
